Location: Hokitika
(42.7170°S, 170.9670°E)
Time: 23:46:02
(UTC+13:00)

SeaSat 1 - Pass Details

Date: 24 January 2019
Orbit: 745 x 747 km, 108.0° (Epoch: 18 October)

Event Time Altitude Azimuth Distance (km) Brightness Sun altitude
Rises 23:34:49 0° 149° (SSE) 3,226 6.1 -20.9°
Reaches altitude 10° 23:37:11 10° 143° (SE) 2,294 5.2 -21.1°
Maximum altitude 23:42:01 49° 68° (ENE) 970 2.6 -21.6°
Enters shadow 23:42:18 48° 56° (NE) 978 2.6 -21.6°
